Regional Weather Roundup
Issued by NWS

Home | Current Version | Previous Version | Graphics & Text | Print | Product List | Glossary On
Versions: 1 2 3 4 5 6 7 8 9 10 11 12 13 14 15 16 17 18 19 20 21 22 23 24 25 26 27 28 29 30 31 32 33 34 35 36 37 38 39 40 41 42 43 44 45 46 47 48 49 50
000
ASUS43 KMKX 220824
RWRWI

WISCONSIN REGIONAL WEATHER ROUNDUP
NATIONAL WEATHER SERVICE MILWAUKEE/SULLIVAN WI
300 AM CDT FRI MAY 22 2015

NOTE: "FAIR" INDICATES FEW OR NO CLOUDS BELOW 12,000 FEET WITH NO
SIGNIFICANT WEATHER AND/OR OBSTRUCTIONS TO VISIBILITY.

WIZ001-002-006>008-014>016-023>028-220900-
NORTHWEST WISCONSIN

CITY           SKY/WX    TMP DP  RH WIND       PRES   REMARKS
SUPERIOR ARPT  CLEAR     37  34  89 CALM      30.13R
ASHLAND        CLEAR     35  33  92 SW3       30.12R
HAYWARD        CLEAR     36  31  82 CALM      30.13R
SIREN          CLEAR     37  34  86 CALM      30.13S
CUMBERLAND     CLEAR     45  32  61 CALM      30.12R
RICE LAKE      CLEAR     41  37  85 N5        30.14R
CHETEK         CLEAR     44  41  89 NW5       30.12R
LADYSMITH      CLEAR     40  39  93 CALM      30.13R
EAU CLAIRE     CLEAR     41  38  89 NE5       30.10R
MENOMONIE      CLEAR     48  38  68 NW3       30.11R
NEW RICHMOND   CLEAR     44  37  74 CALM      30.12S
OSCEOLA        CLEAR     41  40  97 CALM      30.16R
$$

WIZ003>005-009-010-017-018-220900-
NORTH CENTRAL WISCONSIN

CITY           SKY/WX    TMP DP  RH WIND       PRES   REMARKS
MANITOWISH WTR CLEAR     32  32 100 CALM      30.11R
ARBOR VITAE    CLEAR     42  33  71 CALM      30.11R
WOODRUFF       CLEAR     42  33  71 CALM      30.11R
RHINELANDER    CLEAR     38  29  70 CALM      30.12R
EAGLE RIVER    CLEAR     34  27  76 CALM      30.11R
LAND O LAKES   CLEAR     30  29  95 CALM      30.13R
PHILLIPS       CLEAR     34  33  98 CALM      30.11R
TOMAHAWK       CLEAR     29  28  94 CALM      30.12R
MEDFORD        CLEAR     38  34  86 CALM      30.10S
MERRILL        CLEAR     33  32  99 CALM      30.12R
$$

WIZ029-030-035-036-043>047-220900-
CENTRAL WISCONSIN

CITY           SKY/WX    TMP DP  RH WIND       PRES   REMARKS
WAUSAU         CLEAR     39  36  89 E3        30.11R
MOSINEE        CLEAR     41  36  81 CALM      30.12R
MARSHFIELD     CLEAR     44  34  67 CALM      30.11R
STEVENS POINT  CLEAR     36  34  92 CALM      30.12R
WAUPACA        CLEAR     39  36  87 CALM      30.12R
WAUTOMA        CLEAR     37  35  92 CALM      30.12R
WISC RAPIDS    CLEAR     39  36  89 CALM      30.12R
CAMP DOUGLAS   CLEAR     36  36 100 N2        30.09R
$$

WIZ011>013-019>022-031-037>040-048>050-220900-
NORTHEAST WISCONSIN

CITY           SKY/WX    TMP DP  RH WIND       PRES   REMARKS
ANTIGO         CLEAR     40  28  64 CALM      30.12R
SHAWANO        CLEAR     40  37  88 CALM      30.13R
OCONTO         CLEAR     33  33 100 CALM      30.12R
STURGEON BAY   CLEAR     37  27  65 CALM      30.13R
GREEN BAY      CLEAR     39  34  82 W5        30.12R
MANITOWOC      CLEAR     40  34  79 N5        30.11R
APPLETON       CLEAR     39  30  70 CALM      30.12R
CLINTONVILLE   CLEAR     37  36  93 CALM      30.12R
OSHKOSH        CLEAR     45  30  55 CALM      30.11R
$$

WIZ032>034-041-042-053>061-220900-
SOUTHWEST WISCONSIN

CITY           SKY/WX    TMP DP  RH WIND       PRES   REMARKS
LA CROSSE      CLEAR     49  42  77 E3        30.09R
SPARTA         CLEAR     36  35  98 CALM      30.11R
VIROQUA        CLEAR     51  36  57 CALM      30.10R
BOSCOBEL       CLEAR     42  38  85 CALM      30.10R
PRAIRIE DU CHI CLEAR     45  39  82 CALM      30.09S
PLATTEVILLE    CLEAR     50  38  64 CALM      30.09R
$$

WIZ056-057-062-063-064-067-068-220900-
SOUTH CENTRAL WISCONSIN

CITY           SKY/WX    TMP DP  RH WIND       PRES   REMARKS
REEDSBURG      CLEAR     44  40  84 CALM      30.10R
BARABOO/DELLS  CLEAR     41  35  78 CALM      30.09R
LONE ROCK      CLEAR     44  40  85 CALM      30.10R
MINERAL POINT  CLEAR     54  34  47 NE5       30.08S
MADISON        CLEAR     48  33  56 SE5       30.09R
MIDDLETON      CLEAR     48  35  60 CALM      30.10R
WATERTOWN      CLEAR     44  31  61 E3        30.08R
MONROE         CLEAR     50  43  76 NE13      30.08R
JANESVILLE     CLEAR     46  36  66 E5        30.08R
$$

WIZ051-052-058>065-066-070>072-220900-
SOUTHEAST WISCONSIN

CITY           SKY/WX    TMP DP  RH WIND       PRES   REMARKS
MILWAUKEE      CLEAR     45  32  60 N5        30.09R
WAUKESHA       CLEAR     43  32  65 CALM      30.10R
MILWAUKEE/TIMM CLEAR     43  32  65 CALM      30.09S
RACINE         CLEAR     46  36  68 N7        30.10R
BURLINGTON     CLEAR     44  32  62 NE5       30.09R
KENOSHA        CLEAR     46  38  73 N6        30.08R
FOND DU LAC    CLEAR     39  31  72 W3        30.10R
SHEBOYGAN      CLEAR     37  33  85 CALM      30.10R
WEST BEND      CLEAR     39  34  81 CALM      30.10R
JUNEAU         CLEAR     45  28  51 E5        30.09S
$$

LSZ147-162-220900-
LAKE SUPERIOR

STATION/POSITION TIME  TEMP    WIND        PRES    WAVE
                       AIR SEA DIR/SP/G            HT/PER
                 (UTC) (F)     (DEG/KT/KT) (MB)    (FT/S)
W MID LAKE BUOY  0750   37 36   30/  6/  6   N/A     0
DEVILS ISLAND    0800   41      50/  3/  3   N/A
PORT WING        0740   40     160/  4/  5   N/A
SAXON HARBOR     0740   37     200/  2/  5   N/A
$$

LMZ867-665-643>646-220900-
LAKE MICHIGAN

STATION/POSITION TIME  TEMP    WIND        PRES    WAVE
                       AIR SEA DIR/SP/G            HT/PER
                 (UTC) (F)     (DEG/KT/KT) (MB)    (FT/S)
CHAMBERS ISLAND  0700   45     310/  7/  9   N/A
N MID LAKE BUOY  0750   40 36  320/  6/  6   N/A     1/ 3
NORTHPORT PIER   0700   47     340/  9/ 10   N/A
SISTER BAY       0702   43        CALM       N/A
KEWAUNEE LAKESHO 0800          300/  5/  6   N/A
SHEBOYGAN LAKESH 0800          350/  7/  8   N/A
PORT WASHINGTON  0700   49      60/  2/  4   N/A
ATWATER BUOY     0800   46 44  320/  4/  6   N/A
MILWAUKEE LAKESH 0800   49      20/  6/  8   N/A
S MID LAKE BUOY  0750   41 38   10/  6/  8   N/A     1
KENOSHA   LAKESH 0800   49      10/ 11/ 13   N/A
$$

TC  - TEMPERATURE IN CELSIUS
VSB - VISIBILITY IN STATUTE MILES
WCI - WIND CHILL INDEX
HX  - HEAT INDEX




USA.gov is the U.S. government's official web portal to all federal, state and local government web resources and services.